Weather History for Memphis, TN

Change the Weather History Date:

Wednesday, December 26, 2012

  Actual Average Record
Temperature  
Mean Temperature 33 °F 42 °F  
Max Temperature 35 °F 50 °F 74 °F (1889)
Min Temperature 30 °F 33 °F 9 °F (1983)
Degree Days  
Heating Degree Days 32 23  
Month to date heating degree days 323 548  
Since 1 July heating degree days 880 1047  
Cooling Degree Days 0 0  
Month to date cooling degree days 4 0  
Year to date cooling degree days 2617 2256  
Moisture  
Dew Point 28 °F    
Average Humidity 81    
Maximum Humidity 92    
Minimum Humidity 69    
Precipitation  
Precipitation 0.14 in 0.17 in 3.91 in (1904)
Month to date precipitation 2.69 4.93  
Year to date precipitation 35.86 52.87  
Snow  
Snow 0.90 in 0.00 in 3.00 in (1894)
Month to date snowfall 0.9 0.1  
Since 1 July snowfall 0.9 0.1  
Snow Depth 1.00 in    
Sea Level Pressure  
Sea Level Pressure 29.92 in    
Wind  
Wind Speed 12 mph (NW)    
Max Wind Speed 31 mph    
Max Gust Speed 45 mph    
Visibility 6 miles    
Events Snow    
T = Trace of Precipitation, MM = Missing Value Source: NWS Daily Summary

Daily Weather History Graph

Daily Weather History Graph

Search for Another Location

Airport:

Trip Planner

Search our weather history database for the weather conditions in past years. The results will help you decide how hot, cold, wet, or windy it might be!

Date:

Astronomy

Dec. 26, 2012 Rise Set
Actual Time 7:06 AM CST 4:55 PM CST
Civil Twilight 6:38 AM CST 5:23 PM CST
Nautical Twilight 6:06 AM CST 5:55 PM CST
Astronomical Twilight 5:35 AM CST 6:25 PM CST
Moon 3:47 PM CST (12/26) 5:31 AM CST (12/26)
Length of Visible Light 10h 44m
Length of Day
9h 48m
Waxing Gibbous, 97% of the Moon is Illuminated
Dec 26
Waxing Gibbous
Dec 28
Full
Jan 4
Last Quarter
Jan 11
New
Jan 18
First Quarter

Hourly Weather History & Observations

Time (CST) Temp. Windchill Dew Point Humidity Pressure Visibility Wind Dir Wind Speed Gust Speed Precip Events Conditions
12:54 AM 34.0 °F 22.7 °F 32.0 °F 92% 29.57 in 4.0 mi North 19.6 mph 24.2 mph 0.02 in Snow Light Snow
1:46 AM 33.8 °F 22.8 °F 30.2 °F 87% 29.60 in 3.0 mi NNW 18.4 mph 26.5 mph 0.03 in Snow Light Snow
1:54 AM 33.1 °F 22.2 °F 30.9 °F 92% 29.61 in 3.0 mi NNW 17.3 mph 24.2 mph 0.03 in Snow Light Snow
2:01 AM 33.8 °F 23.2 °F 30.2 °F 87% 29.61 in 2.0 mi North 17.3 mph 25.3 mph 0.01 in Snow Light Snow
2:29 AM 33.8 °F 23.5 °F 30.2 °F 87% 29.64 in 1.0 mi NNW 16.1 mph 31.1 mph 0.02 in Snow Light Snow
2:54 AM 33.1 °F 21.9 °F 30.9 °F 92% 29.66 in 1.0 mi NNW 18.4 mph 34.5 mph 0.03 in Snow Light Snow
3:02 AM 33.8 °F 23.5 °F 30.2 °F 87% 29.65 in 0.8 mi NNW 16.1 mph 31.1 mph 0.00 in Snow Light Snow
3:34 AM 32.0 °F 18.9 °F 30.2 °F 93% 29.67 in 0.8 mi NNW 24.2 mph 33.4 mph 0.02 in Snow Light Snow
3:42 AM 32.0 °F 19.8 °F 30.2 °F 93% 29.68 in 1.0 mi NNW 20.7 mph 34.5 mph 0.02 in Snow Light Snow
3:54 AM 32.0 °F 19.8 °F 30.0 °F 92% 29.69 in 1.0 mi NW 20.7 mph 32.2 mph 0.02 in Snow Light Snow
4:13 AM 32.0 °F 19.8 °F 30.2 °F 93% 29.69 in 2.0 mi NNW 20.7 mph 44.9 mph 0.01 in Snow Light Snow
4:21 AM 33.8 °F 22.8 °F 30.2 °F 87% 29.70 in 3.0 mi NNW 18.4 mph 28.8 mph 0.01 in Snow Light Snow
4:54 AM 33.1 °F 22.6 °F 28.9 °F 85% 29.73 in 6.0 mi NNW 16.1 mph 31.1 mph 0.01 in Snow Light Snow
5:54 AM 34.0 °F 24.2 °F 30.0 °F 85% 29.78 in 9.0 mi NW 15.0 mph 28.8 mph 0.00 in   Overcast
6:36 AM 33.8 °F 22.5 °F 30.2 °F 87% 29.81 in 1.8 mi NW 19.6 mph 39.1 mph 0.00 in Snow Light Snow
6:46 AM 32.0 °F 20.1 °F 30.2 °F 93% 29.82 in 2.0 mi NW 19.6 mph 31.1 mph 0.00 in Snow Light Snow
6:50 AM 32.0 °F 20.1 °F 30.2 °F 93% 29.82 in 1.5 mi NW 19.6 mph 31.1 mph 0.00 in Snow Light Snow
6:54 AM 32.0 °F 19.5 °F 30.0 °F 92% 29.83 in 1.2 mi NW 21.9 mph 31.1 mph 0.00 in Snow Light Snow
7:07 AM 32.0 °F 20.1 °F 28.4 °F 87% 29.84 in 1.0 mi WNW 19.6 mph 33.4 mph 0.00 in Snow Light Snow
7:16 AM 32.0 °F 20.5 °F 28.4 °F 87% 29.84 in 0.8 mi NW 18.4 mph 32.2 mph 0.01 in Snow Light Snow
7:54 AM 30.9 °F 18.7 °F 28.0 °F 89% 29.88 in 0.8 mi WNW 19.6 mph 32.2 mph 0.02 in Snow Light Snow
8:35 AM 30.2 °F 18.5 °F 28.4 °F 93% 29.90 in 0.8 mi NW 17.3 mph 33.4 mph 0.00 in Snow Light Snow
8:54 AM 30.9 °F 19.1 °F 28.0 °F 89% 29.93 in 0.8 mi NW 18.4 mph 26.5 mph 0.01 in Snow Light Snow
9:01 AM 30.2 °F 18.5 °F 28.4 °F 93% 29.93 in 1.2 mi NW 17.3 mph 26.5 mph 0.00 in Snow Light Snow
9:18 AM 30.2 °F 19.8 °F 28.4 °F 93% 29.95 in 2.0 mi NW 13.8 mph 26.5 mph 0.00 in Snow Light Snow
9:33 AM 30.2 °F 17.8 °F 26.6 °F 86% 29.96 in 4.0 mi NW 19.6 mph 27.6 mph 0.00 in Snow Light Snow
9:44 AM 30.2 °F 17.8 °F 26.6 °F 86% 29.98 in 8.0 mi WNW 19.6 mph 31.1 mph 0.00 in   Overcast
9:54 AM 30.9 °F 19.4 °F 26.1 °F 82% 30.00 in 9.0 mi WNW 17.3 mph 29.9 mph 0.00 in   Overcast
10:54 AM 30.9 °F 19.8 °F 25.0 °F 79% 30.03 in 10.0 mi NW 16.1 mph 27.6 mph N/A   Overcast
11:54 AM 30.9 °F 19.1 °F 25.0 °F 79% 30.04 in 10.0 mi NW 18.4 mph 27.6 mph N/A   Overcast
12:54 PM 32.0 °F 23.0 °F 25.0 °F 75% 30.02 in 10.0 mi NNW 11.5 mph 24.2 mph N/A   Overcast
1:54 PM 32.0 °F 22.1 °F 26.1 °F 79% 30.04 in 10.0 mi NW 13.8 mph - N/A   Overcast
2:54 PM 32.0 °F 23.0 °F 25.0 °F 75% 30.06 in 10.0 mi NW 11.5 mph - N/A   Overcast
3:54 PM 32.0 °F 26.4 °F 25.0 °F 75% 30.11 in 10.0 mi NW 5.8 mph - N/A   Overcast
4:54 PM 33.1 °F 26.1 °F 25.0 °F 72% 30.12 in 10.0 mi NW 8.1 mph - N/A   Overcast
5:54 PM 33.1 °F 28.7 °F 26.1 °F 75% 30.14 in 10.0 mi NW 4.6 mph - N/A   Overcast
6:54 PM 34.0 °F 31.0 °F 26.1 °F 73% 30.16 in 10.0 mi WNW 3.5 mph - N/A   Overcast
7:45 PM 32.0 °F 28.7 °F 26.6 °F 80% 30.15 in 10.0 mi WSW 3.5 mph - N/A   Scattered Clouds
7:54 PM 30.9 °F 27.5 °F 26.1 °F 82% 30.16 in 10.0 mi WSW 3.5 mph - N/A   Partly Cloudy
8:54 PM 30.0 °F 25.2 °F 26.1 °F 85% 30.18 in 10.0 mi West 4.6 mph - N/A   Partly Cloudy
9:12 PM 30.2 °F 26.7 °F 26.6 °F 86% 30.17 in 10.0 mi West 3.5 mph - N/A   Mostly Cloudy
9:54 PM 30.9 °F 27.5 °F 26.1 °F 82% 30.19 in 10.0 mi West 3.5 mph - N/A   Mostly Cloudy
10:54 PM 30.9 °F 27.5 °F 26.1 °F 82% 30.21 in 10.0 mi West 3.5 mph - N/A   Overcast
11:54 PM 30.0 °F - 26.1 °F 85% 30.19 in 10.0 mi Calm Calm - N/A   Overcast